Morris, MN

4:25 AM CDT on March 28, 2017 (GMT -0500)
Morris Municipal

Weather History for KMOX - November, 2012

Change the Weather History Date:

Friday, November 23, 2012

  Actual Average Record
Temperature  
Mean Temperature 14 °F -  
Max Temperature 19 °F 32 °F 55 °F (2006)
Min Temperature 8 °F 17 °F -2 °F (2013)
Degree Days  
Heating Degree Days 52    
Moisture  
Dew Point 10 °F    
Average Humidity 80    
Maximum Humidity 93    
Minimum Humidity 73    
Precipitation  
Precipitation 0.00 in - - ()
Sea Level Pressure  
Sea Level Pressure 30.36 in    
Wind  
Wind Speed 24 mph (NW)    
Max Wind Speed 39 mph    
Max Gust Speed 46 mph    
Visibility 8 miles    
Events Snow    
Averages and records for this station are not official NWS values.
T = Trace of Precipitation, MM = Missing Value Source: NWS Daily Summary

Daily Weather History Graph

Daily Weather History Graph

Search for Another Location

Airport or City:

Trip Planner

Search our weather history database for the weather conditions in past years. The results will help you decide how hot, cold, wet, or windy it might be!

Date:

Astronomy

Nov. 23, 2012 Rise Set
Actual Time 7:34 AM CST 4:45 PM CST
Civil Twilight 7:01 AM CST 5:18 PM CST
Nautical Twilight 6:25 AM CST 5:55 PM CST
Astronomical Twilight 5:49 AM CST 6:30 PM CST
Moon 2:11 PM CST (11/23) 2:42 AM CST (11/23)
Length of Visible Light 10h 17m
Length of Day
9h 11m
Waxing Gibbous, 80% of the Moon is Illuminated
Nov 23
Waxing Gibbous
Nov 28
Full
Dec 6
Last Quarter
Dec 13
New
Dec 19
First Quarter

Hourly Weather History & Observations

Time (CST) Temp. Windchill Dew Point Humidity Pressure Visibility Wind Dir Wind Speed Gust Speed Precip Events Conditions
12:08 AM 19.4 °F 0.8 °F 15.8 °F 86% 30.17 in 5.0 mi NW 28.8 mph 38.0 mph N/A Snow Light Snow
12:28 AM 19.4 °F 0.8 °F 17.6 °F 93% 30.17 in 1.5 mi NW 28.8 mph 40.3 mph N/A Snow Light Snow
12:48 AM 19.4 °F -1.6 °F 12.2 °F 74% 30.19 in 10.0 mi NW 39.1 mph 46.0 mph N/A   Mostly Cloudy
1:08 AM 19.4 °F 0.5 °F 12.2 °F 74% 30.20 in 10.0 mi NW 29.9 mph 43.7 mph N/A   Mostly Cloudy
1:48 AM 17.6 °F -2.8 °F 12.2 °F 79% 30.22 in 7.0 mi NW 33.4 mph 42.6 mph N/A Snow Light Snow
2:08 AM 17.6 °F -3.6 °F 12.2 °F 79% 30.23 in 2.0 mi NW 36.8 mph 42.6 mph N/A Snow Light Snow
2:28 AM 15.8 °F -4.4 °F 8.6 °F 73% 30.25 in 10.0 mi NNW 29.9 mph 38.0 mph N/A   Overcast
2:48 AM 15.8 °F -4.4 °F 10.4 °F 79% 30.25 in 10.0 mi NW 29.9 mph 39.1 mph N/A Snow Light Snow
3:08 AM 15.8 °F -3.7 °F 10.4 °F 79% 30.26 in 7.0 mi NW 27.6 mph 38.0 mph N/A Snow Light Snow
3:28 AM 15.8 °F -5.5 °F 10.4 °F 79% 30.26 in 5.0 mi NW 34.5 mph 39.1 mph N/A Snow Light Snow
3:48 AM 15.8 °F -4.1 °F 10.4 °F 79% 30.27 in 7.0 mi NW 28.8 mph 41.4 mph N/A Snow Light Snow
4:08 AM 15.8 °F -5.2 °F 10.4 °F 79% 30.28 in 7.0 mi NW 33.4 mph 40.3 mph N/A Snow Light Snow
4:28 AM 15.8 °F -5.0 °F 10.4 °F 79% 30.29 in 5.0 mi NW 32.2 mph 40.3 mph N/A Snow Light Snow
4:48 AM 15.8 °F -4.4 °F 10.4 °F 79% 30.30 in 7.0 mi NNW 29.9 mph 42.6 mph N/A Snow Light Snow
5:08 AM 15.8 °F -3.4 °F 10.4 °F 79% 30.31 in 10.0 mi NW 26.5 mph 34.5 mph N/A Snow Light Snow
5:28 AM 15.8 °F -3.7 °F 10.4 °F 79% 30.32 in 7.0 mi NW 27.6 mph 36.8 mph N/A Snow Light Snow
5:48 AM 15.8 °F -3.7 °F 10.4 °F 79% 30.33 in 10.0 mi NNW 27.6 mph 35.7 mph N/A Snow Light Snow
6:08 AM 15.8 °F -3.1 °F 10.4 °F 79% 30.34 in 5.0 mi NNW 25.3 mph 36.8 mph N/A Snow Light Snow
6:28 AM 15.8 °F -1.9 °F 10.4 °F 79% 30.34 in 4.0 mi NNW 21.9 mph 35.7 mph N/A Snow Light Snow
6:48 AM 15.8 °F -3.1 °F 10.4 °F 79% 30.35 in 5.0 mi NNW 25.3 mph 33.4 mph N/A Snow Light Snow
7:08 AM 15.8 °F -2.3 °F 10.4 °F 79% 30.36 in 7.0 mi NW 23.0 mph 28.8 mph N/A Snow Light Snow
7:28 AM 15.8 °F -2.7 °F 10.4 °F 79% 30.36 in 5.0 mi NNW 24.2 mph 33.4 mph N/A Snow Light Snow
7:48 AM 15.8 °F -2.3 °F 10.4 °F 79% 30.38 in 5.0 mi NNW 23.0 mph 31.1 mph N/A Snow Light Snow
8:08 AM 15.8 °F -2.7 °F 10.4 °F 79% 30.38 in 5.0 mi NNW 24.2 mph 31.1 mph N/A Snow Light Snow
8:28 AM 15.8 °F -3.1 °F 10.4 °F 79% 30.39 in 4.0 mi NW 25.3 mph 32.2 mph N/A Snow Light Snow
8:48 AM 15.8 °F -1.5 °F 10.4 °F 79% 30.39 in 7.0 mi NNW 20.7 mph 28.8 mph N/A Snow Light Snow
9:08 AM 15.8 °F -3.1 °F 10.4 °F 79% 30.40 in 5.0 mi NNW 25.3 mph 32.2 mph N/A Snow Light Snow
9:28 AM 17.6 °F -0.6 °F 10.4 °F 73% 30.41 in 5.0 mi NNW 25.3 mph 31.1 mph N/A Snow Light Snow
9:48 AM 17.6 °F -0.6 °F 10.4 °F 73% 30.41 in 5.0 mi NW 25.3 mph 31.1 mph N/A Snow Light Snow
10:08 AM 17.6 °F -1.0 °F 12.2 °F 79% 30.42 in 3.0 mi NW 26.5 mph 31.1 mph N/A Snow Light Snow
10:28 AM 17.6 °F 0.1 °F 12.2 °F 79% 30.43 in 4.0 mi NW 23.0 mph 28.8 mph N/A Snow Light Snow
10:48 AM 17.6 °F 0.1 °F 10.4 °F 73% 30.43 in 7.0 mi NW 23.0 mph 27.6 mph N/A Snow Light Snow
11:08 AM 19.4 °F 2.8 °F 12.2 °F 74% 30.42 in 5.0 mi NW 21.9 mph 26.5 mph N/A Snow Light Snow
11:28 AM 19.4 °F 3.6 °F 12.2 °F 74% 30.43 in 7.0 mi NW 19.6 mph - N/A Snow Light Snow
11:48 AM 19.4 °F 3.6 °F 12.2 °F 74% 30.42 in 7.0 mi NNW 19.6 mph 25.3 mph N/A Snow Light Snow
12:08 PM 19.4 °F 2.8 °F 12.2 °F 74% 30.42 in 10.0 mi NNW 21.9 mph 27.6 mph N/A Snow Light Snow
12:28 PM 19.4 °F 2.8 °F 12.2 °F 74% 30.41 in 10.0 mi NW 21.9 mph 27.6 mph N/A   Overcast
12:48 PM 19.4 °F 3.2 °F 14.0 °F 80% 30.42 in 10.0 mi NNW 20.7 mph 25.3 mph N/A   Overcast
1:08 PM 19.4 °F 2.5 °F 12.2 °F 74% 30.41 in 10.0 mi NW 23.0 mph 27.6 mph N/A Snow Light Snow
1:28 PM 19.4 °F 3.2 °F 12.2 °F 74% 30.41 in 10.0 mi NNW 20.7 mph 25.3 mph N/A Snow Light Snow
1:48 PM 19.4 °F 3.6 °F 12.2 °F 74% 30.41 in 7.0 mi NNW 19.6 mph - N/A Snow Light Snow
2:08 PM 19.4 °F 3.6 °F 12.2 °F 74% 30.41 in 7.0 mi NNW 19.6 mph - N/A Snow Light Snow
2:28 PM 19.4 °F 4.5 °F 12.2 °F 74% 30.41 in 10.0 mi NNW 17.3 mph - N/A Snow Light Snow
2:48 PM 19.4 °F 4.5 °F 12.2 °F 74% 30.41 in 10.0 mi NNW 17.3 mph - N/A   Overcast
3:08 PM 17.6 °F 2.7 °F 12.2 °F 79% 30.42 in 10.0 mi NNW 16.1 mph 20.7 mph N/A   Overcast
3:28 PM 17.6 °F 2.2 °F 12.2 °F 79% 30.42 in 10.0 mi NNW 17.3 mph - N/A   Overcast
3:48 PM 17.6 °F 3.7 °F 12.2 °F 79% 30.43 in 10.0 mi NNW 13.8 mph - N/A Snow Light Snow
4:08 PM 17.6 °F 2.7 °F 12.2 °F 79% 30.43 in 10.0 mi NNW 16.1 mph - N/A Snow Light Snow
4:28 PM 17.6 °F 3.7 °F 12.2 °F 79% 30.42 in 7.0 mi NNW 13.8 mph - N/A Snow Light Snow
4:48 PM 17.6 °F 4.3 °F 12.2 °F 79% 30.42 in 10.0 mi NNW 12.7 mph - N/A Snow Light Snow
5:08 PM 15.8 °F 2.1 °F 10.4 °F 79% 30.42 in 10.0 mi NNW 12.7 mph - N/A Snow Light Snow
5:28 PM 15.8 °F 4.2 °F 10.4 °F 79% 30.42 in 10.0 mi NNW 9.2 mph 13.8 mph N/A Snow Light Snow
5:48 PM 15.8 °F 2.1 °F 10.4 °F 79% 30.41 in 10.0 mi NNW 12.7 mph - N/A Snow Light Snow
6:28 PM 15.8 °F 1.4 °F 10.4 °F 79% 30.42 in 10.0 mi NNW 13.8 mph 19.6 mph N/A Snow Light Snow
6:48 PM 15.8 °F 1.4 °F 8.6 °F 73% 30.41 in 10.0 mi NW 13.8 mph - N/A Snow Light Snow
7:08 PM 12.2 °F -0.2 °F 8.6 °F 85% 30.41 in 10.0 mi NNW 9.2 mph - N/A   Scattered Clouds
7:28 PM 12.2 °F -1.0 °F 8.6 °F 85% 30.40 in 10.0 mi NNW 10.4 mph - N/A   Clear
7:48 PM 12.2 °F -1.0 °F 8.6 °F 85% 30.39 in 10.0 mi NW 10.4 mph - N/A   Clear
8:08 PM 12.2 °F -0.2 °F 8.6 °F 85% 30.39 in 10.0 mi NNW 9.2 mph - N/A   Clear
8:28 PM 10.4 °F -0.4 °F 6.8 °F 85% 30.39 in 10.0 mi NW 6.9 mph - N/A   Clear
8:48 PM 10.4 °F -0.4 °F 6.8 °F 85% 30.38 in 10.0 mi NNW 6.9 mph - N/A Snow Light Snow
9:08 PM 10.4 °F -0.4 °F 8.6 °F 92% 30.37 in 10.0 mi NNW 6.9 mph - N/A Snow Light Snow
9:28 PM 10.4 °F 0.8 °F 6.8 °F 85% 30.37 in 10.0 mi NW 5.8 mph - N/A   Scattered Clouds
9:48 PM 8.6 °F -1.3 °F 5.0 °F 85% 30.38 in 10.0 mi NW 5.8 mph - N/A   Clear
10:08 PM 8.6 °F -1.3 °F 5.0 °F 85% 30.37 in 10.0 mi NW 5.8 mph - N/A   Clear
10:28 PM 8.6 °F 0.1 °F 6.8 °F 92% 30.37 in 10.0 mi NW 4.6 mph - N/A   Clear
10:48 PM 8.6 °F 0.1 °F 5.0 °F 85% 30.37 in 10.0 mi NW 4.6 mph - N/A   Clear
11:08 PM 8.6 °F 2.0 °F 5.0 °F 85% 30.36 in 10.0 mi NW 3.5 mph - N/A   Clear
11:28 PM 8.6 °F 0.1 °F 6.8 °F 92% 30.36 in 10.0 mi NNW 4.6 mph - N/A   Clear
11:48 PM 8.6 °F 0.1 °F 5.0 °F 85% 30.35 in 10.0 mi North 4.6 mph - N/A   Clear